Hourly Data Report for February 03, 2013

BAGOTVILLE A
QUEBEC

48°20'00.000" N
71°00'00.000" W
159.10 m
7060400
71727
YBG

Download Data

Hourly Data (February 2013)
Hourly Data Report for February 3, 2013
TIME
LST
Temp Definition
°C
Dew Point Definition
°C
Rel Hum Definition
%
Precip. Amount Definition
mm

Wind Dir Definition
10's deg

Wind Spd Definition
km/h
Visibility Definition
km
Stn Press Definition
kPa
Hmdx Definition


Wind Chill Definition


Weather Definition


00:00 -24.0 -26.6 79   16 6 24.1 99.89   -30 Clear
01:00 -24.2 -25.8 87   15 6 24.1 99.88   -30 Clear
02:00 -23.3 -24.9 87   11 11 24.1 99.89   -32 Clear
03:00 -23.9 -25.5 87   13 6 24.1 99.88   -30 Clear
04:00 -24.2 -26.8 79   16 4 24.1 99.87   -28 Clear
05:00 -24.0 -25.6 87   12 9 24.1 99.87   -31 Clear
06:00 -23.8 -25.4 87   11 11 24.1 99.87   -32 Clear
07:00 -23.6 -25.2 87   11 9 40.2 99.86   -31 Clear
08:00 -22.2 -25.5 74   11 9 40.2 99.85   -29 Clear
09:00 -20.0 -23.0 77   11 15 40.2 99.80   -29 Mainly Clear
10:00 -18.4 -21.9 74   10 15 40.2 99.75   -27 Mainly Clear
11:00 -15.0 -18.4 75   10 20 40.2 99.67   -24 Mainly Clear
12:00 -12.6 -15.5 79   9 20 40.2 99.57   -21 Mainly Clear
13:00 -11.6 -14.8 77   9 17 40.2 99.50   -19 Mostly Cloudy
14:00 -11.0 -14.5 75   9 17 40.2 99.42   -18 Mostly Cloudy
15:00 -10.6 -13.6 79   9 24 32.2 99.38   -19 Mostly Cloudy
16:00 -10.5 -14.9 70   10 24 40.2 99.32   -19 Mostly Cloudy
17:00 -10.9 -13.5 81   10 26 40.2 99.25   -20 Mostly Cloudy
18:00 -11.2 -13.0 87   9 20 24.1 99.26   -19 Mostly Cloudy
19:00 -12.0 -13.9 86   11 20 24.1 99.25   -20 Mostly Cloudy
20:00 -12.3 -14.2 86   9 17 24.1 99.25   -20 Mostly Cloudy
21:00 -12.5 -15.4 79   11 11 24.1 99.18   -19 Cloudy
22:00 -12.7 -15.6 79   13 7 24.1 99.13   -17 Cloudy
23:00 -12.6 -16.0 76   13 9 24.1 99.07   -18 Mostly Cloudy

Notes on Data Quality.

Legend

  • E = Estimated
  • M = Missing
  • NA = Not Available*
  • [empty] = Indicates an unobserved value
Date modified: